Location: ???????
(54.6339°N, 39.4245°E)
Time: 02:44:18
(UTC+00:00)

Cosmos 2297 Rocket - Pass Details

Date: 19 May 2025
Orbit: 837 x 844 km, 71.0° (Epoch: 14 June)

Event Time Altitude Azimuth Distance (km) Brightness Sun altitude
Exits shadow 22:44:23 11° 163° (SSE) 2,378 4.1 -13.2°
Maximum altitude 22:48:56 30° 106° (ESE) 1,483 3.5 -12.9°
Drops below altitude 10° 22:53:46 10° 48° (NE) 2,474 5.7 -12.7°
Sets 22:56:29 0° 38° (NE) 3,414 7.1 -12.5°
